Location: Lake Almanor
(40.2485°N, 121.1442°W)
Time: 01:21:26
(UTC-08:00)

STARLINK-1074 - Pass Details

Date: 30 January 2020
Orbit: 348 x 351 km, 53.0° (Epoch: 17 February)

Event Time Altitude Azimuth Distance (km) Brightness Sun altitude
Rises 19:14:28 0° 309° (NW) 2,173 7.4 -21.9°
Reaches altitude 10° 19:16:29 10° 308° (NW) 1,327 6.2 -22.3°
Enters shadow 19:18:04 28° 306° (NW) 697 4.6 -22.6°
